Simultaneous Nadir Overpasses (SNOs) Predictions

Prediction of SNOs between AQUA and NPP Satellite Orbit:

Table of predicted SNOs for the next 14.0 days since TLE Epoch: 3/12/2016
Index Date (AQUA) Time (AQUA) Lat,Lon (AQUA) SZA (AQUA ) Date (NPP) Time (NPP) Lat,Lon (NPP) SZA (NPP ) Distance(km) Time Diff (sec)
1 03/13/2016 05:33:13 -74.32, 151.43 77.77 03/13/2016 05:32:27 -74.32, 151.37 77.71 1.96 46
2 03/13/2016 06:22:05 76.00, -36.38 100.34 03/13/2016 06:22:35 76.01, -36.32 100.29 1.87 30
3 03/15/2016 21:49:30 -74.98, -91.05 79.58 03/15/2016 21:49:05 -74.98, -91.04 79.56 0.22 25
4 03/15/2016 22:38:33 76.10, 79.78 99.15 03/15/2016 22:39:25 76.09, 79.74 99.12 1.30 52
5 03/18/2016 13:21:47 57.40,-163.51 116.93 03/18/2016 13:20:34 57.61,-164.65 117.26 71.99 73
6 03/18/2016 14:05:55 -75.26, 25.58 80.96 03/18/2016 14:05:52 -75.26, 25.54 80.95 1.21 3
7 03/18/2016 14:54:54 76.56,-162.84 97.54 03/18/2016 14:56:08 76.53,-162.90 97.50 2.88 74
8 03/21/2016 05:33:15 74.37, -28.47 98.97 03/21/2016 05:32:17 74.36, -28.48 99.03 0.48 58
9 03/21/2016 06:22:16 -75.72, 142.74 82.56 03/21/2016 06:22:35 -75.72, 142.72 82.57 0.53 19
10 03/23/2016 21:49:31 75.06, 89.16 97.13 03/23/2016 21:48:55 75.07, 89.23 97.14 2.02 36




NCC Satellite Simultaneous Nadir Overpasses (SNOs) Prediction Service
